time_stamp(utc),avg(mph),gust(mph),direction(deg),12m_air_temp(f),sonic_u(cm/s),sonic_v(cm/s),sonic_w(cm/s),pressure,2m_air_temp(f),pyranometer(W/m^2)
"2021-09-18 00:02:18+00",15.8,17.8,,71.6,339,580,9,1018.93,71.4,0
"2021-09-18 00:07:18+00",13.9,16.9,,71.7,293,529,6,1019.02,71.4,0
"2021-09-18 00:12:18+00",16.9,19.9,,71.8,392,620,7,1019.03,71.4,0
"2021-09-18 00:17:18+00",16.2,18.2,,71.8,380,581,-1,1019,71.5,0
"2021-09-18 00:22:18+00",15.2,18.2,,71.8,370,517,15,1019.04,71.5,0
"2021-09-18 00:27:18+00",15.1,18.1,,71.7,345,531,-2,1019.02,71.4,0
"2021-09-18 00:32:18+00",14.3,17.3,,71.8,337,541,2,1019.04,71.4,0
"2021-09-18 00:37:18+00",15.0,18.0,,71.8,310,565,-1,1019.11,71.4,0
"2021-09-18 00:42:18+00",15.5,18.5,,71.8,381,549,7,1019.14,71.4,0
"2021-09-18 00:47:18+00",13.7,15.7,,71.8,269,543,2,1019.24,71.4,0
"2021-09-18 00:52:18+00",14.9,16.9,,71.8,326,554,-5,1019.22,71.4,0
"2021-09-18 00:57:18+00",13.1,16.1,,71.8,256,516,5,1019.3,71.4,0
"2021-09-18 01:02:18+00",14.3,16.3,,71.7,283,556,0,1019.32,71.3,0
"2021-09-18 01:07:18+00",15.8,17.8,,71.7,315,631,-7,1019.29,71.3,0
"2021-09-18 01:12:18+00",14.4,16.4,,71.6,282,552,-5,1019.26,71.1,0
"2021-09-18 01:17:18+00",11.5,13.5,,71.5,176,458,-3,1019.24,71,0
"2021-09-18 01:22:18+00",11.4,15.4,,71.4,193,467,7,1019.17,70.8,0
"2021-09-18 01:27:18+00",12.3,15.3,,71.3,284,452,5,1019.19,70.6,0
"2021-09-18 01:32:18+00",14.2,17.2,,71.3,269,561,-16,1019.17,70.6,0
"2021-09-18 01:37:18+00",14.5,17.5,,71.4,309,554,-1,1019.19,70.7,0
"2021-09-18 01:42:18+00",12.7,14.7,,71.4,219,511,1,1019.16,70.7,0
"2021-09-18 01:47:18+00",12.8,15.8,,71.4,214,503,14,1019.19,70.8,0
"2021-09-18 01:52:18+00",13.2,16.2,,71.5,218,534,-14,1019.18,70.7,0
"2021-09-18 01:57:18+00",15.1,18.1,,71.4,294,592,5,1019.11,70.6,0
"2021-09-18 02:02:18+00",14.7,18.7,,71.4,265,579,1,1019.03,70.5,0
"2021-09-18 02:07:18+00",13.9,16.9,,71.4,314,491,-1,1018.97,70.6,0
"2021-09-18 02:12:18+00",12.9,15.9,,71.4,264,482,3,1018.92,70.6,0
"2021-09-18 02:17:18+00",14.3,16.3,,71.4,280,542,6,1018.83,70.6,0
"2021-09-18 02:22:18+00",11.9,13.9,,71.4,171,482,4,1018.9,70.6,0
"2021-09-18 02:27:18+00",11.8,14.8,,71.4,214,451,4,1018.8,70.6,0
"2021-09-18 02:32:18+00",14.9,17.9,,71.4,358,525,4,1018.81,70.6,0
"2021-09-18 02:37:18+00",16.2,18.2,,71.4,329,636,-8,1018.91,70.7,0
"2021-09-18 02:42:18+00",14.5,17.5,,71.3,251,561,-1,1018.84,70.7,0
"2021-09-18 02:47:18+00",14.7,16.7,,71.4,339,543,-8,1018.74,70.7,0
"2021-09-18 02:52:18+00",14.7,17.7,,71.4,288,589,-8,1018.61,70.8,0
"2021-09-18 02:57:18+00",11.8,13.8,,71.4,236,438,-5,1018.59,70.8,0
"2021-09-18 03:02:18+00",15.7,18.7,,71.4,371,571,-7,1018.55,70.8,0
"2021-09-18 03:07:18+00",11.5,13.5,,71.3,236,423,6,1018.52,70.9,0
"2021-09-18 03:12:18+00",15.9,17.9,,71.3,430,529,6,1018.45,70.7,0
"2021-09-18 03:17:18+00",15.3,17.3,,71.3,319,561,-2,1018.42,70.7,0
"2021-09-18 03:22:18+00",15.1,18.1,,71.3,418,490,13,1018.42,70.7,0
"2021-09-18 03:27:18+00",13.6,14.6,,71.3,337,461,14,1018.34,70.7,0
"2021-09-18 03:32:18+00",13.5,15.5,,71.2,334,465,3,1018.3,70.7,0
"2021-09-18 03:37:18+00",14.5,17.5,,71.2,361,514,-19,1018.26,70.6,0
"2021-09-18 03:42:18+00",14.1,17.1,,71.1,380,471,16,1018.21,70.4,0
"2021-09-18 03:47:18+00",14.4,16.4,,71.1,322,530,8,1018.23,70.4,0
"2021-09-18 03:52:18+00",14.1,16.1,,71.2,311,538,-2,1018.22,70.4,0
"2021-09-18 03:57:18+00",14.5,16.5,,71.3,301,553,-3,1018.17,70.5,0
"2021-09-18 04:02:18+00",13.9,16.9,,71.2,292,535,-3,1018.04,70.6,0
"2021-09-18 04:07:18+00",14.2,15.2,,71.2,263,563,-6,1018.02,70.6,0
"2021-09-18 04:12:18+00",15.6,18.6,,71.3,380,559,-2,1018.11,70.7,0
"2021-09-18 04:17:18+00",12.7,15.7,,71.3,265,468,9,1018.12,70.8,0
"2021-09-18 04:22:18+00",16.9,18.9,,71.2,348,654,-13,1018.12,70.7,0
"2021-09-18 04:27:18+00",16.9,19.9,,71,507,535,22,1018.04,70.7,0
"2021-09-18 04:32:18+00",18.0,22.0,,70.9,541,574,17,1017.97,70.7,0
"2021-09-18 04:37:18+00",15.6,18.6,,71.1,527,460,15,1018,70.8,0
"2021-09-18 04:42:18+00",13.6,15.6,,71.2,463,394,31,1017.96,70.9,0
"2021-09-18 04:47:18+00",14.5,17.5,,71.4,530,407,15,1017.9,70.9,0
"2021-09-18 04:52:18+00",12.7,14.7,,71.5,443,350,23,1017.9,70.9,0
"2021-09-18 04:57:18+00",12.8,15.8,,71.7,396,384,20,1017.87,71.1,0
"2021-09-18 05:02:18+00",16.4,19.4,,71.7,395,591,-8,1017.8,71.1,0
"2021-09-18 05:07:18+00",11.3,13.3,,71.7,284,391,21,1017.65,71.1,0
"2021-09-18 05:12:18+00",16.0,18.0,,71.8,419,518,4,1017.63,71.2,0
"2021-09-18 05:17:18+00",18.8,20.8,,71.6,665,548,21,1017.62,71.2,0
"2021-09-18 05:22:18+00",17.9,21.9,,71.5,646,474,52,1017.55,71,0
"2021-09-18 05:27:18+00",17.2,19.2,,71.3,595,495,26,1017.64,70.9,0
"2021-09-18 05:32:18+00",17.3,19.3,,71.1,530,540,8,1017.52,70.8,0
"2021-09-18 05:37:18+00",16.1,18.1,,71,463,508,6,1017.45,70.7,0
"2021-09-18 05:42:18+00",15.1,18.1,,71.1,426,502,8,1017.39,70.7,0
"2021-09-18 05:47:18+00",13.7,16.7,,71.1,367,454,7,1017.53,70.7,0
"2021-09-18 05:52:18+00",13.4,16.4,,71.2,349,455,2,1017.49,70.7,0
"2021-09-18 05:57:18+00",14.1,16.1,,71.1,383,469,-16,1017.49,70.6,0
"2021-09-18 06:02:18+00",15.2,17.2,,71.2,396,508,5,1017.38,70.6,0
"2021-09-18 06:07:18+00",12.0,14.0,,71.3,286,430,4,1017.38,70.7,0
"2021-09-18 06:12:18+00",11.2,12.2,,71.3,293,376,-3,1017.38,70.6,0
"2021-09-18 06:17:18+00",14.8,16.8,,71.2,294,569,2,1017.25,70.7,0
"2021-09-18 06:22:18+00",12.0,14.0,,71.1,188,486,-9,1017.27,70.7,0
"2021-09-18 06:27:18+00",11.3,13.3,,71.2,238,411,-5,1017.25,70.7,0
"2021-09-18 06:32:18+00",12.8,14.8,,71.2,317,440,7,1017.15,70.7,0
"2021-09-18 06:37:18+00",11.1,16.1,,71.3,254,411,1,1017.12,70.7,0
"2021-09-18 06:42:18+00",15.5,18.5,,71.4,435,502,14,1017.12,70.7,0
"2021-09-18 06:47:18+00",13.9,15.9,,71.4,343,485,10,1017.21,70.8,0
"2021-09-18 06:52:18+00",13.2,15.2,,71.4,358,427,3,1017.24,70.9,0
"2021-09-18 06:57:18+00",8.7,9.7,,71.4,186,318,-3,1017.26,71,0
"2021-09-18 07:02:18+00",13.3,17.3,,71.3,235,533,1,1017.19,70.9,0
"2021-09-18 07:07:18+00",13.2,15.2,,71.3,235,526,-2,1017.24,70.9,0
"2021-09-18 07:12:18+00",12.6,13.6,,71.2,273,473,-7,1017.26,70.8,0
"2021-09-18 07:17:18+00",13.3,15.3,,71.2,260,520,-2,1017.33,70.7,0
"2021-09-18 07:22:18+00",10.7,11.7,,71.2,222,391,0,1017.3,70.6,0
"2021-09-18 07:27:18+00",9.3,11.3,,71.1,189,362,3,1017.31,70.6,0
"2021-09-18 07:32:18+00",11.5,13.5,,71.1,213,458,0,1017.16,70.5,0
"2021-09-18 07:37:18+00",11.8,14.8,,71.1,228,465,-2,1017.29,70.6,0
"2021-09-18 07:42:18+00",10.2,13.2,,71.2,9,411,-5,1017.24,70.6,0
"2021-09-18 07:47:18+00",7.8,8.8,,70.7,-80,326,9,1017.19,70.4,0
"2021-09-18 07:52:18+00",7.5,8.5,,70.4,-109,303,2,1017.18,70.2,0
"2021-09-18 07:57:18+00",7.4,8.4,,70,-139,293,14,1017.19,69.9,0
"2021-09-18 08:02:18+00",8.0,9.0,,69.8,-156,318,13,1017.18,69.6,0
"2021-09-18 08:07:18+00",6.9,7.9,,69.7,-84,292,5,1017.19,69.4,0
"2021-09-18 08:12:18+00",6.7,7.7,,69.7,-3,300,0,1017.2,69.4,0
"2021-09-18 08:17:18+00",6.0,7.0,,69.7,14,253,-1,1017.22,69.2,0
"2021-09-18 08:22:18+00",6.5,7.5,,69.6,-33,281,7,1017.31,69.1,0
"2021-09-18 08:27:18+00",6.6,7.6,,69.5,-9,288,12,1017.4,69,0
"2021-09-18 08:32:18+00",6.2,7.2,,69.4,-6,284,3,1017.37,68.9,0
"2021-09-18 08:37:18+00",6.5,7.5,,69.3,-9,293,8,1017.35,68.9,0
"2021-09-18 08:42:18+00",6.9,7.9,,69.3,-33,300,8,1017.4,68.8,0
"2021-09-18 08:47:18+00",7.1,8.1,,69.2,-94,300,11,1017.41,68.8,0
"2021-09-18 08:52:18+00",7.1,8.1,,68.9,-118,287,4,1017.37,68.6,0
"2021-09-18 08:57:18+00",6.2,7.2,,68.7,-90,254,11,1017.38,68.4,0
"2021-09-18 09:02:18+00",5.7,6.7,,68.6,-43,247,6,1017.33,68.3,0
"2021-09-18 09:07:18+00",6.6,7.6,,68.6,-14,285,5,1017.39,68.2,0
"2021-09-18 09:12:18+00",7.5,8.5,,68.6,-31,323,4,1017.43,68.1,0
"2021-09-18 09:17:18+00",7.1,8.1,,68.5,-23,311,9,1017.41,68,0
"2021-09-18 09:22:18+00",7.1,8.1,,68.5,1,309,5,1017.47,67.9,0
"2021-09-18 09:27:18+00",7.2,8.2,,68.6,14,324,4,1017.46,67.9,0
"2021-09-18 09:32:18+00",6.6,7.6,,68.5,-15,282,7,1017.58,67.9,0
"2021-09-18 09:37:18+00",6.6,7.6,,68.5,-40,287,7,1017.69,67.7,0
"2021-09-18 09:42:18+00",7.4,8.4,,68.4,-158,288,17,1017.69,67.8,0
"2021-09-18 09:47:18+00",8.4,9.4,,68.1,-232,298,27,1017.71,67.8,0
"2021-09-18 09:52:18+00",10.0,11.0,,67.8,-286,341,14,1017.77,67.6,0
"2021-09-18 09:57:18+00",8.0,9.0,,67.7,-227,273,16,1017.79,67.5,0
"2021-09-18 10:02:18+00",8.2,9.2,,67.6,-200,294,24,1017.86,67.4,0
"2021-09-18 10:07:18+00",9.1,11.1,,67.6,-220,338,23,1017.91,67.4,0
"2021-09-18 10:12:18+00",9.0,11.0,,67.6,-207,353,18,1017.94,67.3,0
"2021-09-18 10:17:18+00",10.1,12.1,,67.6,-197,405,14,1017.96,67.3,0
"2021-09-18 10:22:18+00",9.6,10.6,,67.6,-200,385,26,1017.89,67.3,0
"2021-09-18 10:27:18+00",9.9,11.9,,67.5,-164,408,14,1018,67.2,0
"2021-09-18 10:32:18+00",9.0,10.0,,67.4,-109,369,14,1018.03,67.2,0
"2021-09-18 10:37:18+00",9.6,11.6,,67.4,-127,409,4,1018.12,67.2,0
"2021-09-18 10:42:18+00",12.3,14.3,,67.3,-234,496,13,1018.23,67.2,0
"2021-09-18 10:47:18+00",10.6,12.6,,67.1,-214,418,14,1018.37,67.1,0
"2021-09-18 10:52:18+00",9.8,10.8,,67.1,-168,411,12,1018.41,67,0
"2021-09-18 10:57:18+00",9.5,11.5,,67.1,-165,375,5,1018.41,67,0
"2021-09-18 11:02:18+00",9.7,11.7,,67.1,-153,387,19,1018.46,67.1,0
"2021-09-18 11:07:18+00",11.1,13.1,,67.1,-195,449,11,1018.53,67.1,0
"2021-09-18 11:12:18+00",11.7,13.7,,67.1,-201,471,11,1018.45,67.1,0
"2021-09-18 11:17:18+00",10.5,12.5,,67.3,-149,437,6,1018.41,67.2,0
"2021-09-18 11:22:18+00",9.5,10.5,,67.4,-136,393,17,1018.41,67.3,0
"2021-09-18 11:27:18+00",8.3,10.3,,67.6,-100,351,11,1018.35,67.3,0
"2021-09-18 11:32:18+00",8.8,9.8,,67.6,-107,382,-3,1018.33,67.3,0
"2021-09-18 11:37:18+00",7.5,8.5,,67.8,-67,317,2,1018.35,67.5,0
"2021-09-18 11:42:18+00",7.4,9.4,,68.1,-69,310,5,1018.29,67.9,0
"2021-09-18 11:47:18+00",6.1,7.1,,68.4,-67,251,10,1018.38,68.3,0
"2021-09-18 11:52:18+00",7.6,8.6,,68.5,-63,330,-6,1018.36,68.6,0
"2021-09-18 11:57:18+00",5.4,6.4,,68.7,-47,227,19,1018.41,68.8,0
"2021-09-18 12:02:18+00",6.7,7.7,,68.8,-75,295,8,1018.27,69,0
"2021-09-18 12:07:18+00",8.0,9.0,,68.8,-112,329,6,1018.31,69.5,0
"2021-09-18 12:12:18+00",8.6,10.6,,68.9,-132,348,6,1018.26,69.8,0
"2021-09-18 12:17:18+00",10.3,11.3,,69,-215,414,15,1018.17,70,0
"2021-09-18 12:22:18+00",9.1,11.1,,69.1,-198,363,31,1018.18,70.3,0
"2021-09-18 12:27:18+00",9.1,11.1,,69.3,-166,370,4,1018.2,70.4,0
"2021-09-18 12:32:18+00",7.7,8.7,,69.4,-85,325,-11,1018.13,70.7,0
"2021-09-18 12:37:18+00",7.2,8.2,,69.7,-6,312,-9,1018.15,71.2,0
"2021-09-18 12:42:18+00",5.4,6.4,,70,-137,192,11,1018,71.8,0
"2021-09-18 12:47:18+00",6.7,7.7,,70.2,-197,230,14,1017.97,72.1,0
"2021-09-18 12:52:18+00",8.3,9.3,,70.2,-183,315,6,1017.96,72.1,0
"2021-09-18 12:57:18+00",6.0,7.0,,70.6,-99,228,23,1018,72.4,0
"2021-09-18 13:02:18+00",6.8,8.8,,70.8,-24,291,21,1017.98,72.9,0
"2021-09-18 13:07:18+00",8.1,11.1,,71,-306,210,18,1017.91,73.5,0
"2021-09-18 13:12:18+00",9.9,10.9,,71.2,-242,366,19,1017.96,73.7,0
"2021-09-18 13:17:18+00",7.6,8.6,,71.6,-202,273,25,1017.92,74,0
"2021-09-18 13:22:18+00",9.0,10.0,,71.9,-60,391,-6,1017.85,74.2,0
"2021-09-18 13:27:18+00",13.3,16.3,,72.2,-35,577,-1,1017.87,74.7,0
"2021-09-18 13:32:18+00",9.4,11.4,,72.2,-179,376,2,1017.97,74.8,0
"2021-09-18 13:37:18+00",13.0,14.0,,72.4,-345,460,15,1017.96,74.4,0
"2021-09-18 13:42:18+00",11.9,12.9,,72.3,-266,466,20,1017.95,73.9,0
"2021-09-18 13:47:18+00",10.3,11.3,,72.4,-263,363,27,1018,73.6,0
"2021-09-18 13:52:18+00",11.0,13.0,,72.2,-169,457,6,1018.04,73.1,0
"2021-09-18 13:57:18+00",12.5,14.5,,72.6,-211,502,10,1018.04,73.4,0
"2021-09-18 14:02:18+00",12.2,14.2,,73,-64,560,4,1018.03,74.3,0
"2021-09-18 14:07:18+00",13.4,14.4,,73.4,-112,577,20,1017.95,75.2,0
"2021-09-18 14:12:18+00",12.7,14.7,,74.3,-67,557,38,1017.93,76.2,0
"2021-09-18 14:17:18+00",11.8,15.8,,73.9,-69,529,4,1017.9,76.4,0
"2021-09-18 14:22:18+00",11.5,15.5,,74.3,22,497,-5,1017.77,77.2,0
"2021-09-18 14:27:18+00",10.7,11.7,,74.4,-115,454,-1,1017.78,77.1,0
"2021-09-18 14:32:18+00",10.2,12.2,,74.6,-139,430,18,1017.8,77.2,0
"2021-09-18 14:37:18+00",9.9,12.9,,74.5,-33,433,2,1017.82,76.9,0
"2021-09-18 14:42:18+00",10.4,13.4,,74.5,-105,435,-13,1017.78,77.2,0
"2021-09-18 14:47:18+00",9.0,10.0,,74.6,-136,377,-2,1017.72,76.6,0
"2021-09-18 14:52:18+00",11.7,12.7,,74.9,-147,500,-9,1017.68,77,0
"2021-09-18 14:57:18+00",7.5,8.5,,74.8,-106,299,6,1017.59,77.3,0
"2021-09-18 15:02:18+00",8.3,9.3,,75.3,-111,344,-9,1017.64,77.8,0
"2021-09-18 15:07:18+00",9.6,11.6,,75.5,-139,393,13,1017.42,78.3,0
"2021-09-18 15:12:18+00",8.6,10.6,,75.7,-16,370,-16,1017.49,78.4,0
"2021-09-18 15:17:18+00",8.3,10.3,,75.8,160,307,-3,1017.41,78.9,0
"2021-09-18 15:22:18+00",8.5,9.5,,75.8,249,256,29,1017.47,79.6,0
"2021-09-18 15:27:18+00",9.5,10.5,,76.2,-19,420,25,1017.48,79.9,0
"2021-09-18 15:32:18+00",7.6,9.6,,76.1,103,294,1,1017.51,79.9,0
"2021-09-18 15:37:18+00",7.4,9.4,,76.7,84,281,23,1017.48,80.3,0
"2021-09-18 15:42:18+00",6.7,8.7,,76.7,-137,260,-1,1017.5,80,0
"2021-09-18 15:47:18+00",6.8,8.8,,76.6,155,231,-9,1017.57,80.3,0
"2021-09-18 15:52:18+00",6.6,7.6,,77.2,117,245,-5,1017.53,81,0
"2021-09-18 15:57:18+00",7.8,9.8,,77.6,20,338,3,1017.49,81.7,0
"2021-09-18 16:02:18+00",7.1,9.1,,77.3,171,239,-18,1017.55,81.1,0
"2021-09-18 16:07:18+00",5.6,10.6,,77.6,169,172,0,1017.55,80.8,0
"2021-09-18 16:12:18+00",4.6,6.6,,77.8,-6,146,39,1017.58,80.3,0
"2021-09-18 16:17:18+00",6.6,7.6,,77.8,113,261,-22,1017.53,80.1,0
"2021-09-18 16:22:18+00",5.0,6.0,,77.9,-11,207,-15,1017.53,80.3,0
"2021-09-18 16:27:18+00",6.1,8.1,,77.6,153,193,7,1017.54,79.7,0
"2021-09-18 16:32:18+00",7.6,8.6,,74.5,263,-219,-4,1017.49,76.8,0
"2021-09-18 16:37:18+00",9.7,10.7,,73.6,364,-225,9,1017.36,76.1,0
"2021-09-18 16:42:18+00",8.8,9.8,,73.8,325,-229,34,1017.37,76,0
"2021-09-18 16:47:18+00",8.4,8.4,,73.6,340,-174,-4,1017.4,75.5,0
"2021-09-18 16:52:18+00",7.5,8.5,,73.5,292,-162,18,1017.34,75.2,0
"2021-09-18 16:57:18+00",7.7,8.7,,73.4,329,-106,-2,1017.24,75,0
"2021-09-18 17:02:18+00",8.2,9.2,,73.7,242,-256,-6,1017.06,75.9,0
"2021-09-18 17:07:18+00",5.5,7.5,,74.1,176,-139,35,1016.96,76.3,0
"2021-09-18 17:12:18+00",4.7,5.7,,74.6,112,-153,-11,1016.93,76.3,0
"2021-09-18 17:17:18+00",3.1,4.1,,75.5,95,-72,2,1016.82,77.2,0
"2021-09-18 17:22:18+00",3.7,4.7,,75.8,16,-134,10,1016.82,77.3,0
"2021-09-18 17:27:18+00",4.7,5.7,,75.9,-39,-192,-4,1016.76,77,0
"2021-09-18 17:32:18+00",3.5,4.5,,76.5,-37,-129,7,1016.68,77.8,0
"2021-09-18 17:37:18+00",3.5,4.5,,76.7,-80,-120,-3,1016.6,79.1,0
"2021-09-18 17:42:18+00",1.5,2.5,,77.2,-28,33,1,1016.45,79.9,0
"2021-09-18 17:47:18+00",1.7,2.7,,78.2,-64,-28,35,1016.32,80.8,0
"2021-09-18 17:52:18+00",6.6,7.6,,78.4,-241,170,6,1016.24,81,0
"2021-09-18 17:57:18+00",3.9,4.9,,78.9,12,128,40,1016.3,81.3,0
"2021-09-18 18:02:18+00",7.4,8.4,,78.2,262,-195,4,1016.25,80.9,0
"2021-09-18 18:07:18+00",6.8,7.8,,76.3,285,-108,25,1016.24,80.3,0
"2021-09-18 18:12:18+00",4.9,5.9,,76.5,181,-126,-8,1016.14,80,0
"2021-09-18 18:17:18+00",6.6,7.6,,76.9,204,-207,20,1016.09,79.9,0
"2021-09-18 18:22:18+00",8.6,9.6,,76.7,257,-276,-6,1016.02,80.2,0
"2021-09-18 18:27:18+00",11.1,13.1,,75.3,333,-350,-9,1015.96,78.9,0
"2021-09-18 18:32:18+00",7.5,8.5,,75.5,172,-284,6,1016.06,78.5,0
"2021-09-18 18:37:18+00",5.8,6.8,,75.5,62,-237,-9,1015.91,77.9,0
"2021-09-18 18:42:18+00",8.4,9.4,,76,127,-339,-7,1015.86,78.3,0
"2021-09-18 18:47:18+00",7.7,9.7,,76,155,-275,9,1015.85,78.1,0
"2021-09-18 18:52:18+00",9.3,11.3,,75.6,168,-344,11,1015.73,78,0
"2021-09-18 18:57:18+00",8.6,9.6,,75.5,178,-316,-6,1015.78,78,0
"2021-09-18 19:02:18+00",7.8,9.8,,75.7,94,-321,3,1015.75,78.2,0
"2021-09-18 19:07:18+00",10.3,11.3,,74.9,184,-405,-29,1015.76,77.1,0
"2021-09-18 19:12:18+00",9.6,10.6,,74.6,121,-385,-16,1015.76,76.5,0
"2021-09-18 19:17:18+00",8.9,9.9,,75.1,122,-353,3,1015.73,76.7,0
"2021-09-18 19:22:18+00",8.1,10.1,,75.1,29,-336,-12,1015.69,76.4,0
"2021-09-18 19:27:18+00",6.3,8.3,,75.6,15,-252,1,1015.72,76.8,0
"2021-09-18 19:32:18+00",7.9,8.9,,75.9,55,-341,-11,1015.64,77.4,0
"2021-09-18 19:37:18+00",7.8,9.8,,76,79,-295,-4,1015.48,77.5,0
"2021-09-18 19:42:18+00",10.6,12.6,,75.3,151,-425,-15,1015.43,76.8,0
"2021-09-18 19:47:18+00",11.1,13.1,,74.6,209,-427,-6,1015.34,76.3,0
"2021-09-18 19:52:18+00",10.7,12.7,,74.7,162,-415,2,1015.37,76.4,0
"2021-09-18 19:57:18+00",10.4,12.4,,74.7,139,-443,0,1015.31,76.3,0
"2021-09-18 20:02:18+00",10.7,12.7,,74.5,186,-421,1,1015.3,76.4,0
"2021-09-18 20:07:18+00",11.1,13.1,,74.4,150,-461,-13,1015.33,76,0
"2021-09-18 20:12:18+00",11.7,12.7,,74.4,170,-475,-20,1015.18,76,0
"2021-09-18 20:17:18+00",10.0,12.0,,74.7,95,-443,2,1015.12,76,0
"2021-09-18 20:22:18+00",9.5,11.5,,74.7,99,-385,9,1015.14,75.7,0
"2021-09-18 20:27:18+00",8.7,11.7,,75,73,-376,-3,1015.14,76,0
"2021-09-18 20:32:18+00",11.9,13.9,,75.1,80,-514,-26,1015.06,76,0
"2021-09-18 20:37:18+00",9.8,12.8,,75.2,41,-402,-15,1015.13,75.8,0
"2021-09-18 20:42:18+00",10.9,13.9,,75.4,72,-442,-8,1015.09,76,0
"2021-09-18 20:47:18+00",8.4,11.4,,75.6,64,-343,22,1015.08,76.3,0
"2021-09-18 20:52:18+00",8.3,11.3,,75.8,26,-345,-8,1015.08,76.4,0
"2021-09-18 20:57:18+00",9.9,12.9,,75.8,115,-405,1,1015,76.7,0
"2021-09-18 21:02:18+00",10.2,12.2,,75.8,140,-417,-7,1014.9,76.7,0
"2021-09-18 21:07:18+00",9.5,12.5,,75.7,96,-393,-3,1014.92,76.6,0
"2021-09-18 21:12:18+00",9.8,11.8,,75.8,42,-412,-24,1014.93,76.4,0
"2021-09-18 21:17:18+00",7.7,10.7,,75.8,17,-309,6,1014.98,76.3,0
"2021-09-18 21:22:18+00",11.0,12.0,,75.8,88,-458,-28,1014.91,76.3,0
"2021-09-18 21:27:18+00",9.7,12.7,,75.6,47,-418,-38,1014.94,76.1,0
"2021-09-18 21:32:18+00",8.0,10.0,,75.6,-4,-330,-13,1014.85,76,0
"2021-09-18 21:37:18+00",9.8,10.8,,75.5,65,-411,-13,1014.85,75.9,0
"2021-09-18 21:42:18+00",8.0,11.0,,75.5,60,-335,2,1014.87,75.9,0
"2021-09-18 21:47:18+00",6.8,8.8,,75.6,64,-271,-4,1014.83,75.8,0
"2021-09-18 21:52:18+00",8.1,9.1,,75.1,94,-323,-2,1014.9,75.6,0
"2021-09-18 21:57:18+00",8.9,9.9,,74.8,89,-377,-5,1014.83,75.4,0
"2021-09-18 22:02:18+00",5.8,6.8,,74.9,37,-229,17,1014.93,75.1,0
"2021-09-18 22:07:18+00",7.1,9.1,,74.8,24,-299,-7,1014.8,75,0
"2021-09-18 22:12:18+00",7.3,8.3,,74.8,60,-320,-13,1014.76,75,0
"2021-09-18 22:17:18+00",7.4,9.4,,74.7,67,-306,10,1014.77,74.8,0
"2021-09-18 22:22:18+00",6.1,8.1,,74.6,36,-243,-6,1014.9,74.7,0
"2021-09-18 22:27:18+00",5.6,6.6,,74.4,17,-224,-6,1014.89,74.6,0
"2021-09-18 22:32:18+00",5.7,7.7,,74.4,24,-228,-14,1014.94,74.5,0
"2021-09-18 22:37:18+00",5.4,6.4,,74.3,13,-221,-14,1015.03,74.3,0
"2021-09-18 22:42:18+00",5.0,7.0,,74.3,-29,-188,5,1015.05,74.3,0
"2021-09-18 22:47:18+00",6.4,8.4,,74.3,-29,-265,-9,1015.05,74.2,0
"2021-09-18 22:52:18+00",6.5,7.5,,74.3,-33,-274,-8,1015.08,74.1,0
"2021-09-18 22:57:18+00",6.6,8.6,,74.2,12,-278,-20,1015.03,74,0
"2021-09-18 23:02:18+00",5.8,7.8,,74.1,6,-233,-11,1015.09,73.9,0
"2021-09-18 23:07:18+00",6.3,7.3,,74,-13,-254,-22,1015.13,73.8,0
"2021-09-18 23:12:18+00",6.7,8.7,,74,-34,-280,-1,1015.18,73.8,0
"2021-09-18 23:17:18+00",6.3,7.3,,74,-15,-256,-3,1015.15,73.7,0
"2021-09-18 23:22:18+00",6.3,8.3,,74,-30,-254,-5,1015.19,73.7,0
"2021-09-18 23:27:18+00",5.8,8.8,,74,-69,-253,-7,1015.25,73.7,0
"2021-09-18 23:32:18+00",6.5,7.5,,74.1,-83,-260,-2,1015.29,73.7,0
"2021-09-18 23:37:18+00",4.6,6.6,,74.1,-29,-189,-2,1015.26,73.6,0
"2021-09-18 23:42:18+00",4.6,5.6,,74.2,57,-178,-8,1015.42,73.7,0
"2021-09-18 23:47:18+00",5.7,5.7,,74,107,-214,-17,1015.55,73.6,0
"2021-09-18 23:52:18+00",5.8,6.8,,74.2,-29,-238,-5,1015.52,73.5,0
"2021-09-18 23:57:18+00",5.5,6.5,,74.2,-58,-225,-9,1015.62,73.5,0
